[Iaude] MPEC T260: 2023 TM14 [a=2.18,e=0.54,i=3.0,H=26.5]

mpec at marsden.cfa.harvard.edu mpec at marsden.cfa.harvard.edu
Sun Oct 15 19:11:12 EDT 2023


M.P.E.C. 2023-T260                             Issued 2023 October 15, 23:09 UT

     The Minor Planet Electronic Circulars contain information on unusual
         minor planets, routine data on comets and natural satellites,
         and occasional editorial announcements.  They are published
    on behalf of Division F of the International Astronomical Union by the
          Minor Planet Center, Smithsonian Astrophysical Observatory,
                          Cambridge, MA 02138, U.S.A.
			  
             Prepared using the Tamkin Foundation Computer Network

                              MPC at CFA.HARVARD.EDU
            URL https://www.minorplanetcenter.net/    ISSN 1523-6714

                                   2023 TM14                                    


Observations:
     K23T14M*1C2023 10 15.20582123 48 09.828-03 24 56.92         19.45GVET260G96
     K23T14M 1C2023 10 15.21098123 48 15.350-03 23 33.72         19.84GVET260G96
     K23T14M 1C2023 10 15.21613423 48 20.916-03 22 09.73         19.54GVET260G96
     K23T14M 1C2023 10 15.22130623 48 26.392-03 20 47.00         20.46GVET260G96
     K23T14M  C2023 10 15.25514523 49 02.196-03 11 37.25         19.7 GVET260H01
     K23T14M  C2023 10 15.25947523 49 06.925-03 10 25.98         19.6 GVET260H01
     K23T14M  C2023 10 15.26924923 49 07.63 -03 01 49.9                WET260X09
     K23T14M  C2023 10 15.27620923 49 25.295-03 05 49.61         19.9 GVET260H01
     K23T14M  C2023 10 15.27624523 49 15.56 -02 59 54.9                WET260X09
     K23T14M  C2023 10 15.27943423 49 28.837-03 04 56.46         20.1 GVET260H01
     K23T14M mC2023 10 15.32165823 50 16.595-02 53 07.87         19.25GVET260I52
     K23T14M mC2023 10 15.32190923 50 16.883-02 53 03.52         19.48GVET260I52
     K23T14M mC2023 10 15.32216023 50 17.146-02 52 59.38         19.13GVET260I52
     K23T14M mC2023 10 15.32241123 50 17.441-02 52 55.38         19.56GVET260I52
     K23T14M  C2023 10 15.78664 00 00 27.54 -00 32 06.4          19.4 GVET260M28
     K23T14M  C2023 10 15.78864 00 00 30.00 -00 31 29.9          19.5 GVET260M28
     K23T14M KC2023 10 15.80004600 00 44.657-00 35 27.96         19.6 GVET260A17
     K23T14M KC2023 10 15.81364200 01 01.702-00 31 20.57         19.6 GVET260A17
     K23T14M KB2023 10 15.81751700 01 06.194-00 30 10.40         20.4 GXET260K74
     K23T14M KB2023 10 15.82081600 01 10.303-00 29 10.86         20.0 GXET260K74
     K23T14M KB2023 10 15.82411500 01 14.450-00 28 10.63         20.2 GXET260K74
     K23T14M KC2023 10 15.82753400 01 19.114-00 27 07.02         19.1 GVET260A17
     K23T14M KB2023 10 15.82798800 01 19.325-00 27 00.00         18.4 GXET260K74
     K23T14M KB2023 10 15.83186100 01 24.190-00 25 49.04         18.6 GXET260K74
     K23T14M KB2023 10 15.83587700 01 29.203-00 24 35.28         18.5 GXET260K74
     K23T14M KB2023 10 15.83761 00 01 31.83 -00 24 05.3          19.5 GXET260K35
     K23T14M KB2023 10 15.84047 00 01 35.41 -00 23 13.4          19.3 GXET260K35
     K23T14M KB2023 10 15.84334 00 01 39.04 -00 22 20.6          19.4 GXET260K35
     K23T14M KB2023 10 15.84621 00 01 42.64 -00 21 28.2          19.3 GXET260K35
     K23T14M KB2023 10 15.84744800 01 44.232-00 21 07.07         19.3 GXET260B72
     K23T14M KB2023 10 15.85485500 01 53.529-00 18 50.86         19.3 GXET260B72
     K23T14M KB2023 10 15.86226400 02 02.880-00 16 35.07         19.6 GXET260B72

Observer details:
A17 Guidestar Observatory, Weinheim.  Observers M. Emmerich, S. Melchert.
    0.36-m f/6.0 Schmidt-Cassegrain + CCD.
B72 Soerth.  Observer B. Koch.  0.36-m f/7.6 reflector + CMO.
G96 Mt. Lemmon Survey.  Observer D. C. Fuls.  Measurers E. C. Beshore, D. Fay,
    J. B. Fazekas, D. C. Fuls, A. R. Gibbs, A. D. Grauer, H. Groeller, J. K.
    Hogan, R. A. Kowalski, S. M. Larson, G. J. Leonard, D. Rankin, R. L.
    Seaman, F. C. Shelly, K. W. Wierzchos.  1.5-m reflector + 10K CCD.
H01 Magdalena Ridge Observatory, Socorro.  Observers W. H. Ryan, E. V. Ryan.
    Measurer W. H. Ryan.  2.4-m f/8.9 Ritchey-Chretien + CCD.
I52 Steward Observatory, Mt. Lemmon Station.  Observer J. K. Hogan.  Measurers
    E. C. Beshore, D. Fay, J. B. Fazekas, D. C. Fuls, A. R. Gibbs, A. D.
    Grauer, H. Groeller, J. K. Hogan, R. A. Kowalski, S. M. Larson, G. J.
    Leonard, D. Rankin, R. L. Seaman, F. C. Shelly, K. W. Wierzchos.  1.0-m
    prime focus + CCD.
K35 Huenfelden.  Observer P. Remmel.  0.36-m f/1.9 reflector + CMO.
K74 Muensterschwarzach Observatory, Schwarzach.  Observer C. Gerhard.  0.30-m
    f/3.75 reflector + CMO.
M28 Lesedi Telescope-SAAO Observatory, Sutherland.  Observers N. Erasmus, S.
    Potter, C. van Gend, S. Chandra, H. Worters.  Measurers T. Ngwane, N.
    Erasmus.  1.0-m f/8 Reflector + CCD.
X09 Deep Random Survey, Rio Hurtado.  Observers A. Schnabel, D. Ruhela.
    Measurer S. Deen.  0.43-m reflector + CMOS.

Orbital elements:
2023 TM14                                                Earth MOID = 0.0206 AU
Epoch 2023 Sept. 13.0 TT = JDT 2460200.5                Veres                   
M 347.19125              (2000.0)            P               Q                  
n   0.30568677     Peri.   10.53496     +0.84685378     -0.53147529             
a   2.1824868      Node    21.60392     +0.48404802     +0.75522958             
e   0.5351282      Incl.    3.00556     +0.22030929     +0.38361738             
P   3.22           H   26.58          G   0.15           U   8                  
Residuals in seconds of arc
231015 G96  0.5+  0.4+    231015 I52  0.0   0.1+    231015 K74  0.1+  0.4-
231015 G96  0.3-  0.4-    231015 I52  0.2-  0.1+    231015 K74  0.2+  0.2-
231015 G96  0.4-  0.4-    231015 I52  0.0   0.1-    231015 K74  0.1-  0.0
231015 G96 (2.3-  2.0-)   231015 M28  2.0-  0.6+    231015 K35  0.5+  0.2+
231015 H01  0.1+  0.1+    231015 M28  1.9-  0.7+    231015 K35  0.3+  0.3-
231015 H01  0.1+  0.0     231015 A17  0.6+  0.2+    231015 K35  0.7+  0.1-
231015 X09  0.1+  1.3+    231015 A17  0.0   0.0     231015 K35  0.6+  0.3-
231015 H01  0.2+  0.2+    231015 K74  0.1+  0.5+    231015 B72  0.2+  0.4-
231015 X09  0.2-  0.2+    231015 K74  0.3-  0.2-    231015 B72  0.0   0.2-
231015 H01  0.1+  0.0     231015 K74  0.2-  0.2-    231015 B72  0.6+  0.7-
231015 I52  0.1-  0.0     231015 A17  0.5-  0.1-

Ephemeris:
2023 TM14                a,e,i = 2.18, 0.54, 3                   q = 1.0146
Date    TT    R. A. (2000) Decl.     Delta      r    Elong.  Phase     V
2023 09 15    21 45 24.0 -27 36 22   0.1431  1.1266   145.3    30.5    23.9
...
2023 09 30    21 56 54.2 -25 43 59   0.08134 1.0605   134.8    42.1    22.9
...
2023 10 08    22 26 14.5 -20 35 56   0.05052 1.0362   135.7    42.4    21.8
...
2023 10 14    23 26 32.3 -08 12 49   0.03015 1.0236   148.8    30.4    20.3
2023 10 15    23 44 04.3 -04 16 45   0.02741 1.0220   153.5    25.8    20.0
2023 10 16    00 05 04.3 +00 30 25   0.02503 1.0206   159.3    20.2    19.6
...
2023 10 22    03 30 32.7 +35 35 21   0.02382 1.0151   145.4    33.9    19.9
...
2023 10 30    06 34 12.0 +41 49 03   0.04798 1.0163   117.6    60.0    22.2
...
2023 11 14    07 39 17.2 +38 59 21   0.1035  1.0444   119.5    55.6    23.8

M. P. C. Staff               (C) Copyright 2023 MPC           M.P.E.C. 2023-T260





More information about the Iaude mailing list